DAL191 KLAX-YBBN

Flight info

Callsign DAL191
Flight time N/A
Altitude 34000
Route SUMMR2 DINTY DCT 3142N12732W 2908N13325W 2752N13608W 2509N14138W 2249N14552W 2104N14827W 1758N15215W/N0500F360 1606N15448W 1400N15728W 1135N16025W 0927N16314W 0629N16744W 0459N17004W 0205N17428W/N0494F380 0105S17846W 0204S18000W 0445S17638E 0638S17419E 1000S17030E 1328S16623E/N0487F400 1433S16509E 1657S16239E 1835S16053E 2100S15831E DCT FLATY DCT ATROP H224 TEBOT
Aircraft A359/H-SDE2E3GHIJ3J4J5LM1ORWXY/LB1D1

Departure

Time 2026-05-08 04:37
Airport Los Angeles International Airport (KLAX)

Arrival

Time N/A
Airport Brisbane International Airport (YBBN)
Time Latitude Longitude Altitude Speed Heading
2026-05-08 03:27 33.94099 -118.41093 125 ft 0 kts 83°
2026-05-08 04:26 33.94099 -118.41094 132 ft 2 kts 83°
2026-05-08 04:27 33.94096 -118.41124 128 ft 4 kts 83°
2026-05-08 04:27 33.94093 -118.41149 132 ft 3 kts 83°
2026-05-08 04:27 33.94091 -118.41180 132 ft 4 kts 105°
2026-05-08 04:27 33.94103 -118.41198 125 ft 4 kts 159°
2026-05-08 04:28 33.94129 -118.41204 129 ft 4 kts 178°
2026-05-08 04:28 33.94144 -118.41205 129 ft 5 kts 173°
2026-05-08 04:30 33.94143 -118.41204 129 ft 1 kts 173°
2026-05-08 04:31 33.94120 -118.41200 132 ft 6 kts 171°
2026-05-08 04:31 33.94067 -118.41191 129 ft 9 kts 172°
2026-05-08 04:31 33.93994 -118.41180 129 ft 12 kts 173°
2026-05-08 04:31 33.93901 -118.41167 127 ft 15 kts 172°
2026-05-08 04:32 33.93796 -118.41143 126 ft 15 kts 140°
2026-05-08 04:32 33.93777 -118.41020 132 ft 16 kts 86°
2026-05-08 04:32 33.93790 -118.40875 132 ft 19 kts 84°
2026-05-08 04:32 33.93806 -118.40713 129 ft 21 kts 83°
2026-05-08 04:33 33.93822 -118.40535 124 ft 22 kts 82°
2026-05-08 04:33 33.93843 -118.40345 132 ft 24 kts 83°
2026-05-08 04:33 33.93864 -118.40140 122 ft 25 kts 83°
2026-05-08 04:33 33.93887 -118.39923 129 ft 27 kts 83°
2026-05-08 04:34 33.93910 -118.39697 127 ft 28 kts 83°
2026-05-08 04:34 33.93934 -118.39459 130 ft 29 kts 83°
2026-05-08 04:34 33.93958 -118.39213 130 ft 30 kts 83°
2026-05-08 04:34 33.93984 -118.38959 124 ft 31 kts 83°
2026-05-08 04:35 33.94012 -118.38700 123 ft 32 kts 83°
2026-05-08 04:35 33.94041 -118.38434 121 ft 32 kts 83°
2026-05-08 04:35 33.94063 -118.38213 129 ft 24 kts 83°
2026-05-08 04:35 33.94072 -118.38039 130 ft 15 kts 115°
2026-05-08 04:36 33.93997 -118.38025 128 ft 10 kts 229°
2026-05-08 04:36 33.93978 -118.38097 129 ft 6 kts 262°
2026-05-08 04:36 33.93976 -118.38122 132 ft 16 kts 262°
2026-05-08 04:36 33.93937 -118.38483 124 ft 69 kts 263°
2026-05-08 04:37 33.93857 -118.39248 132 ft 114 kts 263°
2026-05-08 04:37 33.93743 -118.40363 129 ft 153 kts 263°
2026-05-08 04:37 33.93606 -118.41679 559 ft 148 kts 263°
2026-05-08 04:37 33.93476 -118.42892 890 ft 148 kts 262°
2026-05-08 04:38 33.93329 -118.44160 1092 ft 157 kts 261°
2026-05-08 04:38 33.93171 -118.45485 1331 ft 167 kts 262°
2026-05-08 04:38 33.93057 -118.46946 1432 ft 184 kts 265°
2026-05-08 04:38 33.92947 -118.48549 1591 ft 200 kts 265°
2026-05-08 04:39 33.92822 -118.50278 1789 ft 214 kts 265°
2026-05-08 04:39 33.92682 -118.52114 2021 ft 226 kts 265°
2026-05-08 04:39 33.92532 -118.54072 2174 ft 244 kts 265°
2026-05-08 04:39 33.92368 -118.56158 2452 ft 255 kts 265°
2026-05-08 04:40 33.92191 -118.58297 2872 ft 259 kts 265°
2026-05-08 04:40 33.92000 -118.60465 3374 ft 260 kts 265°
2026-05-08 04:40 33.91805 -118.62631 3887 ft 260 kts 267°
2026-05-08 04:40 33.91735 -118.64799 4408 ft 259 kts 272°
2026-05-08 04:41 33.91734 -118.66935 4882 ft 259 kts 272°
2026-05-08 04:41 33.91741 -118.69108 5348 ft 260 kts 272°
2026-05-08 04:41 33.91753 -118.71296 5785 ft 263 kts 272°
2026-05-08 04:41 33.91764 -118.73520 6147 ft 269 kts 272°
2026-05-08 04:42 33.91758 -118.75789 6550 ft 273 kts 271°
2026-05-08 04:42 33.91729 -118.78075 7000 ft 274 kts 270°
2026-05-08 04:42 33.91680 -118.80381 7462 ft 276 kts 270°
2026-05-08 04:42 33.91663 -118.82703 7925 ft 278 kts 272°
2026-05-08 04:43 33.91713 -118.85044 8406 ft 281 kts 273°
2026-05-08 04:43 33.91798 -118.87407 8892 ft 284 kts 274°
2026-05-08 04:43 33.91888 -118.89795 9402 ft 286 kts 273°
2026-05-08 04:43 33.91959 -118.92162 9915 ft 288 kts 273°
2026-05-08 04:44 33.92031 -118.94593 10304 ft 294 kts 273°
2026-05-08 04:44 33.92106 -118.97075 10677 ft 299 kts 273°
2026-05-08 04:44 33.92186 -118.99604 10998 ft 307 kts 274°
2026-05-08 04:44 33.92610 -119.02165 11166 ft 319 kts 293°
2026-05-08 04:45 33.93670 -119.04559 11357 ft 330 kts 302°
2026-05-08 04:45 33.94821 -119.07008 11547 ft 342 kts 294°
2026-05-08 04:45 33.95495 -119.09798 11711 ft 355 kts 277°
2026-05-08 04:45 33.95457 -119.12811 11904 ft 366 kts 264°
2026-05-08 04:46 33.95132 -119.15893 12092 ft 376 kts 262°
2026-05-08 04:46 33.94750 -119.19051 12262 ft 386 kts 262°
2026-05-08 04:46 33.94351 -119.22288 12424 ft 395 kts 262°
2026-05-08 04:46 33.93944 -119.25585 12637 ft 401 kts 262°
2026-05-08 04:47 33.93531 -119.28925 12945 ft 405 kts 262°
2026-05-08 04:47 33.93121 -119.32244 13295 ft 407 kts 262°
2026-05-08 04:47 33.92701 -119.35627 13667 ft 409 kts 261°
2026-05-08 04:47 33.92279 -119.39026 13975 ft 412 kts 261°
2026-05-08 04:48 33.91854 -119.42443 14282 ft 414 kts 261°
2026-05-08 04:48 33.91426 -119.45878 14610 ft 415 kts 262°
2026-05-08 04:48 33.90998 -119.49304 14939 ft 417 kts 262°
2026-05-08 04:48 33.90564 -119.52777 15267 ft 418 kts 262°
2026-05-08 04:49 33.90128 -119.56250 15575 ft 421 kts 262°
2026-05-08 04:49 33.89689 -119.59739 15887 ft 423 kts 262°
2026-05-08 04:49 33.89253 -119.63196 16194 ft 424 kts 262°
2026-05-08 04:49 33.88808 -119.66715 16500 ft 426 kts 262°
2026-05-08 04:50 33.88362 -119.70244 16847 ft 427 kts 262°
2026-05-08 04:50 33.87911 -119.73789 17155 ft 429 kts 262°
2026-05-08 04:50 33.87458 -119.77351 17471 ft 431 kts 262°
2026-05-08 04:50 33.87003 -119.80922 17806 ft 432 kts 262°
2026-05-08 04:51 33.86545 -119.84501 18133 ft 434 kts 262°
2026-05-08 04:51 33.86083 -119.88103 18406 ft 437 kts 262°
2026-05-08 04:51 33.85624 -119.91675 18683 ft 439 kts 262°
2026-05-08 04:51 33.85156 -119.95311 18954 ft 441 kts 262°
2026-05-08 04:52 33.84685 -119.98960 19215 ft 443 kts 262°
2026-05-08 04:52 33.84210 -120.02632 19522 ft 445 kts 262°
2026-05-08 04:52 33.83732 -120.06316 19808 ft 447 kts 262°
2026-05-08 04:52 33.83250 -120.10020 20071 ft 450 kts 262°
2026-05-08 04:53 33.82765 -120.13743 20391 ft 451 kts 261°
2026-05-08 04:53 33.82277 -120.17478 20715 ft 453 kts 262°
2026-05-08 04:53 33.81792 -120.21179 20954 ft 456 kts 262°
2026-05-08 04:53 33.81297 -120.24951 21265 ft 457 kts 261°
2026-05-08 04:54 33.80798 -120.28738 21582 ft 459 kts 262°
2026-05-08 04:54 33.80296 -120.32546 21836 ft 463 kts 261°
2026-05-08 04:54 33.79791 -120.36366 22164 ft 463 kts 261°
2026-05-08 04:54 33.79282 -120.40202 22462 ft 466 kts 262°
2026-05-08 04:55 33.78770 -120.44056 22764 ft 468 kts 262°
2026-05-08 04:55 33.78255 -120.47922 23106 ft 469 kts 261°
2026-05-08 04:55 33.77737 -120.51797 23368 ft 472 kts 262°
2026-05-08 04:55 33.77221 -120.55653 23629 ft 474 kts 262°
2026-05-08 04:56 33.76695 -120.59566 23939 ft 475 kts 261°
2026-05-08 04:56 33.76167 -120.63495 24186 ft 478 kts 262°
2026-05-08 04:56 33.75634 -120.67444 24458 ft 479 kts 261°
2026-05-08 04:56 33.75100 -120.71397 24775 ft 480 kts 261°
2026-05-08 04:57 33.74561 -120.75368 25020 ft 483 kts 261°
2026-05-08 04:57 33.74020 -120.79355 25330 ft 484 kts 261°
2026-05-08 04:57 33.73483 -120.83295 25625 ft 485 kts 262°
2026-05-08 04:57 33.72935 -120.87306 25878 ft 488 kts 262°
2026-05-08 04:58 33.72384 -120.91333 26196 ft 489 kts 261°
2026-05-08 04:58 33.71830 -120.95365 26448 ft 491 kts 262°
2026-05-08 04:58 33.71273 -120.99409 26762 ft 490 kts 261°
2026-05-08 04:58 33.70716 -121.03450 27102 ft 491 kts 261°
2026-05-08 04:59 33.70155 -121.07507 27333 ft 494 kts 261°
2026-05-08 04:59 33.69590 -121.11581 27577 ft 495 kts 261°
2026-05-08 04:59 33.69030 -121.15614 27810 ft 497 kts 262°
2026-05-08 04:59 33.68459 -121.19709 28057 ft 499 kts 262°
2026-05-08 05:00 33.67885 -121.23822 28308 ft 500 kts 262°
2026-05-08 05:00 33.67308 -121.27936 28586 ft 500 kts 262°
2026-05-08 05:00 33.66730 -121.32057 28828 ft 501 kts 262°
2026-05-08 05:00 33.66149 -121.36188 29082 ft 502 kts 262°
2026-05-08 05:01 33.65567 -121.40314 29427 ft 501 kts 262°
2026-05-08 05:01 33.64985 -121.44431 29709 ft 500 kts 262°
2026-05-08 05:01 33.64401 -121.48541 30020 ft 499 kts 262°
2026-05-08 05:01 33.63818 -121.52645 30310 ft 498 kts 262°
2026-05-08 05:02 33.63235 -121.56735 30644 ft 495 kts 262°
2026-05-08 05:02 33.62663 -121.60739 30986 ft 492 kts 261°
2026-05-08 05:02 33.62083 -121.64786 31200 ft 493 kts 261°
2026-05-08 05:02 33.61502 -121.68832 31420 ft 492 kts 262°
2026-05-08 05:03 33.60922 -121.72869 31697 ft 490 kts 261°
2026-05-08 05:03 33.60341 -121.76896 31883 ft 490 kts 261°
2026-05-08 05:03 33.59759 -121.80920 32141 ft 488 kts 261°
2026-05-08 05:03 33.59180 -121.84922 32430 ft 486 kts 261°
2026-05-08 05:04 33.58599 -121.88921 32618 ft 486 kts 261°
2026-05-08 05:04 33.58020 -121.92901 32875 ft 484 kts 261°
2026-05-08 05:04 33.57446 -121.96830 32989 ft 486 kts 261°
2026-05-08 05:04 33.56864 -122.00815 33185 ft 484 kts 261°
2026-05-08 05:05 33.56283 -122.04779 33418 ft 483 kts 260°
2026-05-08 05:05 33.55699 -122.08752 33497 ft 484 kts 260°
2026-05-08 05:05 33.55115 -122.12719 33769 ft 481 kts 260°
2026-05-08 05:05 33.54532 -122.16666 33912 ft 482 kts 260°
2026-05-08 05:06 33.53947 -122.20624 34028 ft 482 kts 261°
2026-05-08 05:06 33.53362 -122.24570 34141 ft 482 kts 260°
2026-05-08 05:06 33.52177 -122.32533 34158 ft 487 kts 260°
2026-05-08 05:07 33.50982 -122.40528 34157 ft 488 kts 261°
2026-05-08 05:07 33.49792 -122.48457 34157 ft 487 kts 261°
2026-05-08 05:08 33.48564 -122.56433 34159 ft 487 kts 258°
2026-05-08 05:08 33.46459 -122.64145 34166 ft 488 kts 251°
2026-05-08 05:09 33.43925 -122.71699 34167 ft 489 kts 250°
2026-05-08 05:09 33.41339 -122.79239 34170 ft 489 kts 249°
2026-05-08 05:10 33.37529 -122.90477 34161 ft 483 kts 250°
2026-05-08 05:11 33.35021 -122.97909 34179 ft 482 kts 251°
2026-05-08 05:11 33.32509 -123.05345 34184 ft 482 kts 251°
2026-05-08 05:12 33.29990 -123.12781 34181 ft 483 kts 250°
2026-05-08 05:12 33.27479 -123.20172 34142 ft 485 kts 251°
2026-05-08 05:13 33.24928 -123.27665 34313 ft 487 kts 251°
2026-05-08 05:13 33.23650 -123.31409 34463 ft 486 kts 251°
2026-05-08 05:13 33.22374 -123.35142 34578 ft 486 kts 251°
2026-05-08 05:13 33.21080 -123.38924 34695 ft 485 kts 251°
2026-05-08 05:14 33.19820 -123.42602 34809 ft 485 kts 251°
2026-05-08 05:14 33.18543 -123.46327 34921 ft 485 kts 251°
2026-05-08 05:14 33.17266 -123.50050 35021 ft 485 kts 251°
2026-05-08 05:14 33.15989 -123.53766 35123 ft 484 kts 251°
2026-05-08 05:15 33.14709 -123.57486 35218 ft 484 kts 251°
2026-05-08 05:15 33.12150 -123.64913 35399 ft 484 kts 251°
2026-05-08 05:16 33.09586 -123.72336 35461 ft 486 kts 252°
2026-05-08 05:16 33.07019 -123.79756 35565 ft 487 kts 252°
2026-05-08 05:16 33.05726 -123.83482 35678 ft 486 kts 252°
2026-05-08 05:17 33.04432 -123.87209 35776 ft 486 kts 252°
2026-05-08 05:17 33.01849 -123.94635 35928 ft 485 kts 252°
2026-05-08 05:18 32.99256 -124.02076 35953 ft 487 kts 252°
2026-05-08 05:18 32.96654 -124.09523 36125 ft 486 kts 252°
2026-05-08 05:19 32.94070 -124.16901 36210 ft 487 kts 252°
2026-05-08 05:19 32.91462 -124.24334 36206 ft 486 kts 252°
2026-05-08 05:20 32.88865 -124.31708 36210 ft 478 kts 252°
2026-05-08 05:20 32.86288 -124.39017 36214 ft 480 kts 252°
2026-05-08 05:21 32.83697 -124.46361 36220 ft 483 kts 252°
2026-05-08 05:21 32.81085 -124.53743 36220 ft 485 kts 252°
2026-05-08 05:22 32.78473 -124.61103 36221 ft 488 kts 252°
2026-05-08 05:22 32.75831 -124.68526 36226 ft 487 kts 251°
2026-05-08 05:23 32.73190 -124.75930 36220 ft 486 kts 251°
2026-05-08 05:23 32.70547 -124.83326 36224 ft 487 kts 251°
2026-05-08 05:24 32.67899 -124.90723 36227 ft 487 kts 251°
2026-05-08 05:24 32.65260 -124.98075 36235 ft 487 kts 251°
2026-05-08 05:25 32.62602 -125.05465 36238 ft 487 kts 251°
2026-05-08 05:25 32.59934 -125.12865 36240 ft 487 kts 251°
2026-05-08 05:26 32.57718 -125.19002 36237 ft 487 kts 251°
2026-05-08 05:26 32.55041 -125.26395 36230 ft 487 kts 251°
2026-05-08 05:27 32.52364 -125.33777 36240 ft 488 kts 251°
2026-05-08 05:27 32.49679 -125.41162 36240 ft 488 kts 251°
2026-05-08 05:28 32.46984 -125.48558 36242 ft 488 kts 251°
2026-05-08 05:28 32.44290 -125.55936 36247 ft 488 kts 251°
2026-05-08 05:29 32.41607 -125.63267 36246 ft 488 kts 251°
2026-05-08 05:29 32.38903 -125.70639 36245 ft 488 kts 251°
2026-05-08 05:30 32.36194 -125.78009 36241 ft 488 kts 251°
2026-05-08 05:30 32.33477 -125.85384 36249 ft 488 kts 251°
2026-05-08 05:31 32.30759 -125.92746 36252 ft 488 kts 251°
2026-05-08 05:31 32.28038 -126.00100 36251 ft 488 kts 251°
2026-05-08 05:32 32.25313 -126.07449 36254 ft 488 kts 251°
2026-05-08 05:32 32.22584 -126.14794 36255 ft 488 kts 250°
2026-05-08 05:33 32.19865 -126.22097 36252 ft 488 kts 250°
2026-05-08 05:33 32.17124 -126.29443 36260 ft 488 kts 250°
2026-05-08 05:34 32.14383 -126.36772 36256 ft 488 kts 250°
2026-05-08 05:34 32.11637 -126.44098 36257 ft 488 kts 250°
2026-05-08 05:35 32.08884 -126.51426 36252 ft 488 kts 250°
2026-05-08 05:35 32.06133 -126.58736 36262 ft 488 kts 250°
2026-05-08 05:36 32.03389 -126.66010 36264 ft 488 kts 250°
2026-05-08 05:36 32.00627 -126.73320 36266 ft 488 kts 250°
2026-05-08 05:37 31.97858 -126.80629 36259 ft 488 kts 250°
2026-05-08 05:37 31.95089 -126.87923 36272 ft 488 kts 250°
2026-05-08 05:38 31.92333 -126.95168 36270 ft 488 kts 250°
2026-05-08 05:38 31.89556 -127.02454 36269 ft 488 kts 250°
2026-05-08 05:39 31.86776 -127.09732 36276 ft 487 kts 250°
2026-05-08 05:39 31.83993 -127.17000 36265 ft 487 kts 250°
2026-05-08 05:40 31.81209 -127.24260 36273 ft 487 kts 249°
2026-05-08 05:40 31.78418 -127.31521 36282 ft 487 kts 249°
2026-05-08 05:41 31.75625 -127.38772 36273 ft 487 kts 249°
2026-05-08 05:41 31.72846 -127.45972 36274 ft 487 kts 249°
2026-05-08 05:42 31.70043 -127.53220 36265 ft 486 kts 249°
2026-05-08 05:42 31.67186 -127.60432 36279 ft 487 kts 248°
2026-05-08 05:43 31.64264 -127.67608 36280 ft 487 kts 248°
2026-05-08 05:43 31.61342 -127.74782 36277 ft 487 kts 248°
2026-05-08 05:44 31.58447 -127.81908 36281 ft 487 kts 248°
2026-05-08 05:44 31.55532 -127.89083 36281 ft 487 kts 248°
2026-05-08 05:45 31.52620 -127.96242 36272 ft 487 kts 248°
2026-05-08 05:45 31.49701 -128.03399 36281 ft 486 kts 248°
2026-05-08 05:46 31.46781 -128.10546 36283 ft 486 kts 248°
2026-05-08 05:46 31.43875 -128.17643 36284 ft 486 kts 248°
2026-05-08 05:47 31.40945 -128.24784 36283 ft 486 kts 248°
2026-05-08 05:47 31.38018 -128.31904 36284 ft 486 kts 248°
2026-05-08 05:48 31.35084 -128.39028 36285 ft 486 kts 248°
2026-05-08 05:48 31.32147 -128.46145 36284 ft 486 kts 248°
2026-05-08 05:49 31.29204 -128.53262 36286 ft 486 kts 247°
2026-05-08 05:49 31.26281 -128.60318 36287 ft 486 kts 247°
2026-05-08 05:50 31.23333 -128.67421 36283 ft 485 kts 247°
2026-05-08 05:50 31.20387 -128.74502 36287 ft 484 kts 247°
2026-05-08 05:51 31.17441 -128.81571 36288 ft 484 kts 247°
2026-05-08 05:51 31.14494 -128.88630 36287 ft 484 kts 247°
2026-05-08 05:52 31.11545 -128.95678 36288 ft 482 kts 247°
2026-05-08 05:52 31.08604 -129.02695 36289 ft 481 kts 247°
2026-05-08 05:53 31.05662 -129.09702 36291 ft 481 kts 247°
2026-05-08 05:53 31.02737 -129.16655 36289 ft 481 kts 247°
2026-05-08 05:54 30.99791 -129.23643 36291 ft 480 kts 247°
2026-05-08 05:54 30.96836 -129.30641 36289 ft 480 kts 247°
2026-05-08 05:55 30.93884 -129.37618 36294 ft 480 kts 247°
2026-05-08 05:55 30.90928 -129.44590 36291 ft 480 kts 247°
2026-05-08 05:56 30.87987 -129.51515 36290 ft 480 kts 246°
2026-05-08 05:56 30.85025 -129.58475 36286 ft 480 kts 246°
2026-05-08 05:57 30.82058 -129.65435 36291 ft 479 kts 246°
2026-05-08 05:57 30.79093 -129.72377 36290 ft 479 kts 246°
2026-05-08 05:58 30.76127 -129.79308 36291 ft 479 kts 246°
2026-05-08 05:58 30.73177 -129.86190 36292 ft 479 kts 246°
2026-05-08 05:59 30.70206 -129.93107 36292 ft 478 kts 246°
2026-05-08 05:59 30.67231 -130.00021 36292 ft 478 kts 246°
2026-05-08 06:00 30.64250 -130.06935 36292 ft 478 kts 246°
2026-05-08 06:00 30.61269 -130.13835 36298 ft 478 kts 246°
2026-05-08 06:01 30.58286 -130.20731 36297 ft 478 kts 246°
2026-05-08 06:01 30.55322 -130.27572 36294 ft 478 kts 246°
2026-05-08 06:02 30.52330 -130.34461 36292 ft 478 kts 246°
2026-05-08 06:02 30.49338 -130.41338 36295 ft 478 kts 246°
2026-05-08 06:03 30.46335 -130.48229 36288 ft 478 kts 246°
2026-05-08 06:03 30.43337 -130.55095 36295 ft 478 kts 246°
2026-05-08 06:04 30.40333 -130.61962 36298 ft 478 kts 246°
2026-05-08 06:04 30.37324 -130.68828 36299 ft 478 kts 246°
2026-05-08 06:05 30.34313 -130.75687 36297 ft 478 kts 246°
2026-05-08 06:05 30.31319 -130.82495 36298 ft 478 kts 246°
2026-05-08 06:06 30.28303 -130.89341 36299 ft 478 kts 246°
2026-05-08 06:06 30.25281 -130.96187 36300 ft 478 kts 246°
2026-05-08 06:07 30.22251 -131.03038 36300 ft 478 kts 246°
2026-05-08 06:07 30.19220 -131.09880 36300 ft 478 kts 246°
2026-05-08 06:08 30.16186 -131.16718 36302 ft 478 kts 246°
2026-05-08 06:08 30.13144 -131.23560 36303 ft 478 kts 246°
2026-05-08 06:09 30.10121 -131.30350 36299 ft 478 kts 246°
2026-05-08 06:09 30.07074 -131.37180 36299 ft 478 kts 246°
2026-05-08 06:10 30.04016 -131.44021 36301 ft 478 kts 246°
2026-05-08 06:10 30.00959 -131.50849 36300 ft 478 kts 246°
2026-05-08 06:11 29.97923 -131.57619 36296 ft 478 kts 245°
2026-05-08 06:11 29.94858 -131.64441 36302 ft 479 kts 245°
2026-05-08 06:12 29.91790 -131.71258 36299 ft 479 kts 245°
2026-05-08 06:12 29.88716 -131.78075 36302 ft 479 kts 245°
2026-05-08 06:13 29.85639 -131.84886 36298 ft 479 kts 245°
2026-05-08 06:13 29.82560 -131.91692 36297 ft 479 kts 245°
2026-05-08 06:14 29.79479 -131.98489 36298 ft 479 kts 245°
2026-05-08 06:14 29.76393 -132.05286 36297 ft 479 kts 245°
2026-05-08 06:15 29.73321 -132.12040 36299 ft 479 kts 245°
2026-05-08 06:15 29.70227 -132.18831 36298 ft 479 kts 245°
2026-05-08 06:16 29.67129 -132.25618 36300 ft 479 kts 245°
2026-05-08 06:16 29.64030 -132.32397 36300 ft 479 kts 245°
2026-05-08 06:17 29.59370 -132.42567 36297 ft 479 kts 245°
2026-05-08 06:17 29.56262 -132.49335 36296 ft 479 kts 245°
2026-05-08 06:18 29.53152 -132.56096 36291 ft 479 kts 245°
2026-05-08 06:18 29.50037 -132.62858 36291 ft 479 kts 245°
2026-05-08 06:19 29.46937 -132.69574 36300 ft 479 kts 245°
2026-05-08 06:19 29.43818 -132.76321 36295 ft 479 kts 245°
2026-05-08 06:20 29.40694 -132.83066 36298 ft 479 kts 245°
2026-05-08 06:20 29.37564 -132.89813 36297 ft 479 kts 245°
2026-05-08 06:21 29.34429 -132.96558 36300 ft 479 kts 245°
2026-05-08 06:21 29.31823 -133.02157 36303 ft 479 kts 245°
2026-05-08 06:22 29.28177 -133.09978 36294 ft 479 kts 244°
2026-05-08 06:22 29.25034 -133.16708 36295 ft 479 kts 244°
2026-05-08 06:23 29.22419 -133.22298 36299 ft 479 kts 244°
2026-05-08 06:23 29.19276 -133.29006 36297 ft 478 kts 244°
2026-05-08 06:24 29.16128 -133.35714 36298 ft 478 kts 244°
2026-05-08 06:24 29.12978 -133.42419 36298 ft 478 kts 244°
2026-05-08 06:25 29.09899 -133.49159 36295 ft 478 kts 245°
2026-05-08 06:25 29.06872 -133.55919 36295 ft 478 kts 245°
2026-05-08 06:26 29.03835 -133.62671 36296 ft 478 kts 245°
2026-05-08 06:26 29.00802 -133.69369 36295 ft 478 kts 245°
2026-05-08 06:27 28.97742 -133.76105 36295 ft 478 kts 245°
2026-05-08 06:27 28.94675 -133.82840 36295 ft 478 kts 245°
2026-05-08 06:28 28.91612 -133.89561 36298 ft 477 kts 245°
2026-05-08 06:28 28.88545 -133.96278 36298 ft 477 kts 245°
2026-05-08 06:29 28.85475 -134.02990 36291 ft 477 kts 245°
2026-05-08 06:29 28.82422 -134.09653 36292 ft 477 kts 245°
2026-05-08 06:30 28.79345 -134.16359 36303 ft 477 kts 245°
2026-05-08 06:30 28.76269 -134.23052 36285 ft 477 kts 245°
2026-05-08 06:31 28.73186 -134.29747 36299 ft 476 kts 245°
2026-05-08 06:31 28.70127 -134.36380 36286 ft 476 kts 245°
2026-05-08 06:32 28.67040 -134.43065 36301 ft 476 kts 244°
2026-05-08 06:32 28.63950 -134.49742 36293 ft 476 kts 244°
2026-05-08 06:33 28.60858 -134.56414 36297 ft 476 kts 244°
2026-05-08 06:33 28.57766 -134.63075 36291 ft 476 kts 244°
2026-05-08 06:34 28.54668 -134.69737 36293 ft 476 kts 244°
2026-05-08 06:34 28.51589 -134.76349 36293 ft 476 kts 244°
2026-05-08 06:35 28.48486 -134.83001 36297 ft 476 kts 244°
2026-05-08 06:35 28.45378 -134.89652 36286 ft 476 kts 244°
2026-05-08 06:36 28.42269 -134.96296 36292 ft 476 kts 244°
2026-05-08 06:36 28.39172 -135.02901 36295 ft 476 kts 244°
2026-05-08 06:37 28.36054 -135.09542 36291 ft 476 kts 244°
2026-05-08 06:37 28.32931 -135.16183 36290 ft 476 kts 244°
2026-05-08 06:38 28.29806 -135.22817 36286 ft 476 kts 244°
2026-05-08 06:38 28.26684 -135.29434 36288 ft 476 kts 244°
2026-05-08 06:39 28.23555 -135.36055 36284 ft 476 kts 244°
2026-05-08 06:39 28.20445 -135.42626 36283 ft 476 kts 244°
2026-05-08 06:40 28.17311 -135.49236 36285 ft 476 kts 244°
2026-05-08 06:40 28.14173 -135.55845 36290 ft 476 kts 244°
2026-05-08 06:41 28.11032 -135.62450 36282 ft 476 kts 244°
2026-05-08 06:41 28.07886 -135.69052 36286 ft 476 kts 244°
2026-05-08 06:42 28.04740 -135.75647 36286 ft 475 kts 244°
2026-05-08 06:42 28.01591 -135.82235 36289 ft 476 kts 244°
2026-05-08 06:43 27.98436 -135.88829 36291 ft 476 kts 244°
2026-05-08 06:43 27.95296 -135.95379 36283 ft 476 kts 244°
2026-05-08 06:44 27.92131 -136.01970 36293 ft 477 kts 244°
2026-05-08 06:44 27.88960 -136.08564 36288 ft 477 kts 244°
2026-05-08 06:45 27.85792 -136.15153 36285 ft 477 kts 244°
2026-05-08 06:45 27.82708 -136.21770 36287 ft 476 kts 245°
2026-05-08 06:46 27.79653 -136.28408 36283 ft 476 kts 244°
2026-05-08 06:46 27.76585 -136.35037 36284 ft 476 kts 244°
2026-05-08 06:47 27.73503 -136.41659 36286 ft 476 kts 244°
2026-05-08 06:47 27.70417 -136.48270 36281 ft 476 kts 244°
2026-05-08 06:48 27.67349 -136.54833 36285 ft 476 kts 244°
2026-05-08 06:48 27.64257 -136.61437 36284 ft 476 kts 244°
2026-05-08 06:49 27.61162 -136.68038 36282 ft 476 kts 244°
2026-05-08 06:49 27.58065 -136.74633 36282 ft 475 kts 244°
2026-05-08 06:50 27.54971 -136.81211 36282 ft 475 kts 244°
2026-05-08 06:50 27.51871 -136.87791 36277 ft 475 kts 244°
2026-05-08 06:51 27.48795 -136.94313 36281 ft 474 kts 244°
2026-05-08 06:51 27.45695 -137.00874 36279 ft 474 kts 244°
2026-05-08 06:52 27.42591 -137.07431 36276 ft 474 kts 244°
2026-05-08 06:52 27.39490 -137.13973 36275 ft 474 kts 244°
2026-05-08 06:53 27.36382 -137.20520 36275 ft 474 kts 244°
2026-05-08 06:53 27.33273 -137.27059 36276 ft 474 kts 244°
2026-05-08 06:54 27.30163 -137.33589 36276 ft 474 kts 244°
2026-05-08 06:54 27.27047 -137.40122 36276 ft 474 kts 243°
2026-05-08 06:55 27.23956 -137.46595 36277 ft 473 kts 243°
2026-05-08 06:55 27.20840 -137.53107 36279 ft 473 kts 243°
2026-05-08 06:56 27.17720 -137.59620 36276 ft 473 kts 243°
2026-05-08 06:56 27.14598 -137.66127 36278 ft 473 kts 243°
2026-05-08 06:57 27.11471 -137.72634 36280 ft 473 kts 243°
2026-05-08 06:57 27.08347 -137.79123 36274 ft 472 kts 243°
2026-05-08 06:58 27.05220 -137.85611 36274 ft 473 kts 243°
2026-05-08 06:58 27.02090 -137.92094 36273 ft 473 kts 243°
2026-05-08 06:59 26.98976 -137.98536 36275 ft 472 kts 243°
2026-05-08 06:59 26.95841 -138.05010 36275 ft 472 kts 243°
2026-05-08 07:00 26.92701 -138.11484 36278 ft 472 kts 243°
2026-05-08 07:00 26.89558 -138.17956 36280 ft 472 kts 243°
2026-05-08 07:01 26.86413 -138.24423 36279 ft 472 kts 243°
2026-05-08 07:01 26.83268 -138.30879 36277 ft 472 kts 243°
2026-05-08 07:02 26.80140 -138.37290 36276 ft 472 kts 243°
2026-05-08 07:02 26.76988 -138.43742 36276 ft 472 kts 243°
2026-05-08 07:03 26.73833 -138.50190 36278 ft 473 kts 242°
2026-05-08 07:03 26.70668 -138.56649 36272 ft 473 kts 242°
2026-05-08 07:04 26.67499 -138.63107 36272 ft 473 kts 242°
2026-05-08 07:04 26.64329 -138.69557 36274 ft 473 kts 242°